Date,TemperatureHighF,TemperatureAvgF,TemperatureLowF,DewpointHighF,DewpointAvgF,DewpointLowF,HumidityHigh,HumidityAvg,HumidityLow,PressureMaxIn,PressureMinIn,WindSpeedMaxMPH,WindSpeedAvgMPH,GustSpeedMaxMPH,PrecipitationSumIn
2013-5-1,59.7,58.1,55.9,58.5,56.4,54.2,98,94,88,30.33,30.12,18,6,18,0.13
2013-5-2,64.2,58.4,55.2,57.2,53.9,49.7,95,85,73,30.33,30.27,15,4,15,0.00
2013-5-3,62.2,57.0,53.2,55.5,50.7,45.7,93,80,56,30.27,30.18,22,6,22,0.00
2013-5-4,60.8,55.3,52.2,54.4,51.0,47.9,94,86,77,30.24,30.12,15,6,15,0.00
2013-5-5,57.2,55.2,53.4,54.2,51.2,48.9,94,86,82,30.15,30.06,17,6,17,0.00
2013-5-6,73.9,63.4,55.9,64.4,58.9,54.2,98,86,60,30.09,29.91,17,5,17,0.04
2013-5-7,76.3,66.1,59.0,64.4,60.4,54.2,96,82,61,29.91,29.79,12,4,12,0.08
2013-5-8,75.0,64.1,55.4,61.0,57.0,50.0,94,79,44,30.00,29.91,10,2,10,0.04
2013-5-9,79.7,68.1,57.9,62.0,57.9,53.0,95,73,42,30.00,29.91,11,1,11,0.00
2013-5-10,87.8,76.0,64.0,63.6,58.3,54.0,81,57,33,30.00,29.85,13,2,13,0.00
2013-5-11,85.1,76.4,70.3,68.9,63.3,58.6,81,65,42,29.91,29.71,14,3,14,0.00
2013-5-12,71.8,66.0,60.6,65.8,57.4,45.1,94,75,54,29.91,29.71,10,2,10,0.58
2013-5-13,63.5,60.4,56.7,45.4,37.2,32.2,54,42,36,30.06,29.91,10,3,10,0.00
2013-5-14,66.6,58.6,46.8,46.3,37.7,33.0,71,47,32,30.18,30.03,10,2,10,0.00
2013-5-15,87.1,73.8,59.7,59.9,52.7,43.6,61,48,38,30.06,29.76,11,4,11,0.00
2013-5-16,90.5,80.2,71.8,62.9,58.1,53.8,65,48,30,29.82,29.76,8,3,8,0.00
2013-5-17,76.5,71.7,66.4,63.6,55.2,46.9,79,57,38,30.06,29.82,12,2,12,0.00
2013-5-18,74.5,67.7,60.4,67.0,60.6,49.4,93,79,54,30.15,30.03,15,3,15,1.41
2013-5-19,78.6,73.0,68.7,70.9,68.3,66.2,96,86,69,30.15,30.03,10,2,10,0.00
2013-5-20,82.9,73.3,69.8,72.0,68.4,64.8,91,85,62,30.09,30.00,10,2,10,0.17
2013-5-21,82.2,74.5,69.8,72.6,69.5,67.2,93,85,67,30.03,29.91,10,2,10,0.04
2013-5-22,86.7,77.2,70.0,71.3,68.2,65.0,91,75,54,29.97,29.85,15,4,15,0.00
2013-5-23,78.6,73.4,69.3,73.1,69.1,64.1,95,87,76,29.97,29.74,12,2,12,0.95
2013-5-24,73.2,64.7,55.4,69.6,57.1,36.7,93,78,47,30.06,29.74,8,3,8,0.21
2013-5-25,66.9,57.9,48.7,41.1,36.7,33.1,56,46,34,30.15,30.00,10,4,10,0.00
2013-5-26,72.1,62.5,51.1,47.9,41.3,37.6,70,48,32,30.21,30.03,6,2,6,0.00
2013-5-27,79.3,67.1,52.5,54.2,49.8,45.2,86,56,33,30.24,30.09,9,2,9,0.00
2013-5-28,85.3,75.4,65.5,63.4,59.7,53.4,78,60,42,30.21,30.06,14,3,14,0.00
2013-5-29,89.4,78.8,68.9,67.1,64.0,61.2,82,62,40,30.15,30.09,15,3,15,0.00
2013-5-30,89.6,78.9,69.4,68.7,64.9,60.2,82,63,48,30.24,30.09,8,2,8,0.00
2013-5-31,91.0,80.8,71.8,71.4,67.2,58.3,88,65,38,30.21,29.97,10,3,10,0.00